Simultaneous Nadir Overpasses (SNOs) Predictions

Prediction of SNOs between METOP-A and TERRA Satellite Orbit:

Table of predicted SNOs for the next 14.0 days since TLE Epoch: 1/25/2013
Index Date (METOP-A) Time (METOP-A) Lat,Lon (METOP-A) SZA (METOP-A ) Date (TERRA) Time (TERRA) Lat,Lon (TERRA) SZA (TERRA ) Distance(km) Time Diff (sec)
1 01/26/2013 00:41:18 -81.35, 37.56 77.56 01/26/2013 00:42:17 -81.36, 37.66 77.52 1.84 59
2 01/26/2013 01:31:58 81.35,-154.72 102.48 01/26/2013 01:31:43 81.36,-154.58 102.49 2.74 15
3 01/28/2013 20:15:39 -81.35, 104.05 78.29 01/28/2013 20:16:32 -81.35, 103.91 78.29 2.34 53
4 01/28/2013 21:06:19 81.35, -88.28 101.74 01/28/2013 21:05:58 81.35, -88.34 101.72 1.13 21
5 01/31/2013 15:50:00 -81.35, 170.45 79.08 01/31/2013 15:50:45 -81.35, 170.50 79.05 1.11 45
6 01/31/2013 16:40:40 81.35, -21.93 100.95 01/31/2013 16:40:11 81.36, -21.77 100.96 2.63 29
7 02/03/2013 11:24:23 -81.35,-123.25 79.91 02/03/2013 11:25:00 -81.34,-123.33 79.91 1.62 37
8 02/03/2013 12:15:02 81.36, 44.72 100.16 02/03/2013 12:14:25 81.36, 44.75 100.15 0.96 37
9 02/06/2013 06:58:46 -81.35, -56.66 80.74 02/06/2013 06:59:14 -81.34, -56.84 80.75 3.11 28




NCC Satellite Simultaneous Nadir Overpasses (SNOs) Prediction Service
